THOR ABLESTAR R/B, 204

Orbit data source: Space-Track

THOR ABLESTAR R/B, 204 is space debris in LEO originally from a launch on Wed, 15 Nov 1961 UTC launched from the Air Force Eastern Test Range (AFETR). Debris objects in space refer to the collection of defunct objects orbiting the Earth. Examples of debris include non-operational satellites, rocket bodies, and fragments generated from explosions, collisions, or faulty payload assembly.

Loading next visibility...
Identifier
204, 1961-031C
Orbit
LEO
Country
Flag of USUS
Related business
Manufacturer
Aerojet
Mission
Spacecraft
Bus & Motor
ABLESTAR, Unknown motor
Mass
~600 kg wet, 600 kg dry
Launch date (UTC)
1961-11-15 (64 years ago)
Launch vehicle
Unknown
Launch site
Air Force Eastern Test Range (AFETR)
Object type
Payload
Rocket body
Debris
Shape & HBR
Cyl, 2.4 m
Radar Cross Section
6.048 m², Large (>1 m²)

Expand to show TLE details & history
Last TLE update: 22 hours ago

TLE from 22 hours ago
0 THOR ABLESTAR R/B
1 00204U 61031C   25261.22981521  .00000058  00000-0  44257-4 0  9992
2 00204  32.4435 342.8481 0098472  41.7133 319.0948 13.65055269185840
Epoch: 2025-09-18T05:30Z
TLE epoch observation values (Epoch: 2025-09-18T05:30:56.034Z)
Latitude
0.00001°
Longitude
-97.27976°
Altitude
961.399 km
Speed
7.4 km/s
True Right ascension
22h 51m 23s
True Declination
0° 00' 00"
Sunlit
Object was in full shadow at epoch
Visualization orbit readout
Latitude
Unknown
Longitude
Unknown
Altitude
Unknown
Speed
Unknown
Apparent Right ascension
Unknown
Apparent Declination
Unknown
Sunlit
N/A
Visualization observer readout
Local Sidereal Time
20:51:00
Azimuth
Unknown
Elevation
Unknown
Doppler factor
Unknown
Orbital elements
Apogee altitude
1,093.626 km
Perigee altitude
947.909 km
Semi-major axis
7,398.904 km
Eccentricity
0.00985
Inclination
32.4435°
RAAN
342.8481°
Arg. of periapsis
41.7133°
True anomaly
318.34899°
Mean anomaly
319.0948°
Eccentric anomaly
318.72259°
Mean motion
3.4103 °/min
Orbital period
105.56 mins
BSTAR
0.000044257
Loading maneuver chart data...
Computing Atmospheric mass density...
Loading historical data...
Loading historical data...
Loading historical data...
Loading historical data...
Loading historical data...
Loading historical data...
Loading historical data...
Other satellites on launch #31 in the year 1961 (1961-11-15 UTC)

Documentation

Showing up to 5 results
|